STARLINK-11673, 64318

Orbit data source: Space-Track

STARLINK-11673, 64318 is a payload satellite owned by SpaceX/Seattle (US) in LEO that was launched on Tue, 10 Jun 2025 UTC via an FALCON 9 launch vehicle from the Air Force Eastern Test Range (AFETR). Payload-class satellites include a variety of spacecraft equipped with specific instruments for various scientific and technological missions. These include communications satellites like Starlink; space stations such as the ISS; scientific satellites like the Hubble; Earth observation satellites from companies like Planet Labs, Umbra, and HawkEye 360; GPS; miniature CubeSats for education and research; and military/defense satellites.

Loading next visibility...
Identifier
64318, 2025-124B
Orbit
LEO
Country
Flag of USUS
Related business
Manufacturer
SpaceX/Seattle
Mission
Operational Commercial Communications
Bus & Motor
STARLINK V2MD, Unknown motor
Mass
960 kg wet, ~910 kg dry
Launch date (UTC)
2025-06-10 (11 months ago)
Launch vehicle
FALCON 9
Launch site
Air Force Eastern Test Range (AFETR)
Object type
Payload
Rocket body
Debris
Shape & HBR
Box + 2 Pan, 18.1 m
Radar Cross Section
36.964 m², Large (>1 m²)

Expand to show TLE details & history
Last TLE update: 10 hours ago

TLE from 10 hours ago
0 STARLINK-11673
1 64318U 25124B   26119.93266721  .00222824  00000-0  16842-2 0  9994
2 64318  43.0002  80.3327 0001819 214.0864 145.9887 15.70977072 50899
Epoch: 2026-04-29T22:23Z
TLE epoch observation values (Epoch: 2026-04-29T22:23:02.446Z)
Latitude
-0.00005°
Longitude
-113.31407°
Altitude
356.89 km
Speed
7.696 km/s
True Right ascension
05h 21m 19s
True Declination
0° 00' 00"
Sunlit
Object was in daylight at epoch
Visualization orbit readout
Latitude
Unknown
Longitude
Unknown
Altitude
Unknown
Speed
Unknown
Apparent Right ascension
Unknown
Apparent Declination
Unknown
Sunlit
N/A
Visualization observer readout
Local Sidereal Time
15:56:06
Azimuth
Unknown
Elevation
Unknown
Doppler factor
Unknown
Orbital elements
Apogee altitude
359.31 km
Perigee altitude
356.86 km
Semi-major axis
6,736.222 km
Eccentricity
0.00018
Inclination
43.0002°
RAAN
80.3327°
Arg. of periapsis
214.0864°
True anomaly
146.00036°
Mean anomaly
145.9887°
Eccentric anomaly
145.99453°
Mean motion
3.92571 °/min
Orbital period
91.7 mins
BSTAR
0.0016842
Loading maneuver chart data...
Computing Atmospheric mass density...
Loading historical data...
Loading historical data...
Loading historical data...
Loading historical data...
Loading historical data...
Loading historical data...
Loading historical data...

Documentation

Showing up to 5 results
|